Location: Les Martinières
(47.2667°N, 1.4410°E)
Time: 23:40:08
(UTC+00:00)

Cosmos 1092 Rocket - Pass Details

Date: 15 May 2026
Orbit: 954 x 994 km, 83.0° (Epoch: 11 June)

Event Time Altitude Azimuth Distance (km) Brightness Sun altitude
Rises 21:33:51 0° 355° (N) 3,648 8.1 -16.9°
Reaches altitude 10° 21:36:29 10° 2° (N) 2,702 7.1 -17.2°
Maximum altitude 21:42:23 45° 74° (ENE) 1,289 4.5 -17.7°
Enters shadow 21:45:20 27° 130° (SE) 1,759 4.8 -18.0°
